| time (UTC) | temp F | wind direction | speed MPH | gust MPH | rain 1hr in | rain 24hr in | rain mn in | humidity % | barometer mb |
| 20260831034543 | 69 | 0 | 0.0 | 3.0 | 0.00 | 0.00 | 0.00 | 53 | 1017.1 |
| 20260831033042 | 69 | 0 | 0.0 | 4.0 | 0.00 | 0.00 | 0.00 | 54 | 1017.1 |
| 20260831031540 | 69 | 292 | 0.0 | 5.0 | 0.00 | 0.00 | 0.00 | 54 | 1017.2 |
| 20260831030051 | 69 | 284 | 2.0 | 7.0 | 0.00 | 0.00 | 0.00 | 54 | 1017.4 |
| 20260831024539 | 69 | 292 | 2.0 | 4.0 | 0.00 | 0.00 | 0.00 | 55 | 1017.5 |
| 20260831023046 | 70 | 0 | 0.0 | 0.0 | 0.00 | 0.00 | 0.00 | 55 | 1017.6 |
| 20260831021540 | 70 | 0 | 0.0 | 0.0 | 0.00 | 0.00 | 0.00 | 56 | 1017.7 |
| 20260831020043 | 70 | 0 | 0.0 | 3.0 | 0.00 | 0.00 | 0.00 | 58 | 1017.7 |
| 20260831014546 | 70 | 0 | 1.0 | 4.0 | 0.00 | 0.00 | 0.00 | 57 | 1017.6 |
| 20260831013040 | 70 | 266 | 1.0 | 6.0 | 0.00 | 0.00 | 0.00 | 59 | 1017.7 |
| 20260831011541 | 71 | 0 | 0.0 | 0.0 | 0.00 | 0.00 | 0.00 | 60 | 1017.7 |
| 20260831010042 | 72 | 0 | 0.0 | 0.0 | 0.00 | 0.00 | 0.00 | 60 | 1017.8 |
| 20260831004545 | 72 | 0 | 0.0 | 0.0 | 0.00 | 0.00 | 0.00 | 60 | 1017.9 |
| 20260831003041 | 73 | 0 | 0.0 | 0.0 | 0.00 | 0.00 | 0.00 | 60 | 1017.9 |
| 20260831001540 | 74 | 0 | 0.0 | 0.0 | 0.00 | 0.00 | 0.00 | 61 | 1017.9 |
| 20260831000052 | 74 | 0 | 0.0 | 0.0 | 0.00 | 0.00 | 0.00 | 61 | 1017.9 |
| 20260830234548 | 74 | 0 | 0.0 | 0.0 | 0.00 | 0.00 | 0.00 | 61 | 1018.1 |
| 20260830233054 | 74 | 0 | 0.0 | 0.0 | 0.00 | 0.00 | 0.00 | 61 | 1018.1 |
| 20260830231546 | 74 | 0 | 0.0 | 0.0 | 0.00 | 0.00 | 0.00 | 61 | 1018.1 |
| 20260830230044 | 74 | 0 | 0.0 | 3.0 | 0.00 | 0.00 | 0.00 | 61 | 1018.1 |
| 20260830224545 | 75 | 0 | 0.0 | 0.0 | 0.00 | 0.00 | 0.00 | 62 | 1018.3 |
| 20260830223041 | 76 | 0 | 0.0 | 0.0 | 0.00 | 0.00 | 0.00 | 62 | 1018.2 |
| 20260830221550 | 76 | 0 | 0.0 | 1.0 | 0.00 | 0.00 | 0.00 | 62 | 1018.3 |
| 20260830220058 | 76 | 113 | 0.0 | 3.0 | 0.00 | 0.00 | 0.00 | 61 | 1018.2 |
| 20260830214546 | 76 | 0 | 0.0 | 2.0 | 0.00 | 0.00 | 0.00 | 61 | 1018.0 |
| 20260830213044 | 76 | 0 | 1.0 | 4.0 | 0.00 | 0.00 | 0.00 | 60 | 1018.0 |
| 20260830211548 | 76 | 0 | 0.0 | 0.0 | 0.00 | 0.00 | 0.00 | 59 | 1017.9 |
| 20260830210040 | 77 | 0 | 0.0 | 0.0 | 0.00 | 0.00 | 0.00 | 58 | 1017.8 |
| 20260830204552 | 77 | 0 | 0.0 | 0.0 | 0.00 | 0.00 | 0.00 | 57 | 1017.7 |
| 20260830203044 | 77 | 0 | 0.0 | 3.0 | 0.00 | 0.00 | 0.00 | 56 | 1017.7 |
| 20260830201555 | 77 | 0 | 0.0 | 5.0 | 0.00 | 0.00 | 0.00 | 55 | 1017.6 |
| 20260830200044 | 78 | 67 | 2.0 | 7.0 | 0.00 | 0.00 | 0.00 | 53 | 1017.3 |
| 20260830194550 | 79 | 134 | 3.0 | 9.0 | 0.00 | 0.00 | 0.00 | 53 | 1017.3 |
| 20260830193042 | 80 | 131 | 5.0 | 10.0 | 0.00 | 0.00 | 0.00 | 50 | 1017.1 |
| 20260830191614 | 80 | 130 | 6.0 | 10.0 | 0.00 | 0.00 | 0.00 | 48 | 1016.8 |
| 20260830184544 | 82 | 144 | 3.0 | 8.0 | 0.00 | 0.00 | 0.00 | 41 | 1016.4 |
| 20260830183043 | 83 | 137 | 5.0 | 13.0 | 0.00 | 0.00 | 0.00 | 41 | 1016.4 |
| 20260830181542 | 85 | 130 | 4.0 | 10.0 | 0.00 | 0.00 | 0.00 | 37 | 1016.3 |
| 20260830180044 | 86 | 136 | 4.0 | 8.0 | 0.00 | 0.00 | 0.00 | 33 | 1016.3 |
| 20260830174547 | 87 | 81 | 5.0 | 9.0 | 0.00 | 0.00 | 0.00 | 29 | 1016.1 |
| 20260830173047 | 88 | 92 | 2.0 | 9.0 | 0.00 | 0.00 | 0.00 | 30 | 1016.0 |
| 20260830171542 | 89 | 88 | 3.0 | 10.0 | 0.00 | 0.00 | 0.00 | 24 | 1016.0 |
| 20260830170042 | 89 | 113 | 4.0 | 10.0 | 0.00 | 0.00 | 0.00 | 23 | 1016.0 |
| 20260830164546 | 90 | 114 | 2.0 | 11.0 | 0.00 | 0.00 | 0.00 | 20 | 1015.9 |
| 20260830163045 | 90 | 128 | 3.0 | 10.0 | 0.00 | 0.00 | 0.00 | 18 | 1015.9 |
| 20260830161551 | 90 | 117 | 7.0 | 12.0 | 0.00 | 0.00 | 0.00 | 19 | 1015.9 |
| 20260830160043 | 90 | 138 | 5.0 | 13.0 | 0.00 | 0.00 | 0.00 | 23 | 1015.8 |
| 20260830154544 | 91 | 114 | 6.0 | 12.0 | 0.00 | 0.00 | 0.00 | 21 | 1015.9 |
| 20260830153046 | 91 | 123 | 8.0 | 15.0 | 0.00 | 0.00 | 0.00 | 19 | 1016.0 |
| 20260830151543 | 91 | 151 | 5.0 | 11.0 | 0.00 | 0.00 | 0.00 | 17 | 1016.1 |
| 20260830150046 | 91 | 139 | 4.0 | 12.0 | 0.00 | 0.00 | 0.00 | 16 | 1016.3 |
| 20260830144554 | 91 | 142 | 7.0 | 13.0 | 0.00 | 0.00 | 0.00 | 18 | 1016.4 |
| 20260830143045 | 91 | 133 | 6.0 | 13.0 | 0.00 | 0.00 | 0.00 | 17 | 1016.6 |
| 20260830141542 | 92 | 138 | 5.0 | 11.0 | 0.00 | 0.00 | 0.00 | 16 | 1016.7 |
| 20260830140043 | 91 | 105 | 6.0 | 12.0 | 0.00 | 0.00 | 0.00 | 16 | 1016.7 |
| 20260830134545 | 91 | 82 | 8.0 | 14.0 | 0.00 | 0.00 | 0.00 | 19 | 1017.0 |
| 20260830133057 | 90 | 132 | 6.0 | 15.0 | 0.00 | 0.00 | 0.00 | 21 | 1017.1 |
| 20260830131552 | 91 | 107 | 5.0 | 15.0 | 0.00 | 0.00 | 0.00 | 18 | 1017.4 |
| 20260830130057 | 91 | 126 | 6.0 | 15.0 | 0.00 | 0.00 | 0.00 | 17 | 1017.5 |
| 20260830124543 | 91 | 163 | 6.0 | 15.0 | 0.00 | 0.00 | 0.00 | 17 | 1017.5 |
| 20260830123044 | 91 | 129 | 5.0 | 12.0 | 0.00 | 0.00 | 0.00 | 22 | 1017.6 |
| 20260830121542 | 90 | 92 | 5.0 | 14.0 | 0.00 | 0.00 | 0.00 | 30 | 1017.7 |
| 20260830120059 | 90 | 110 | 2.0 | 13.0 | 0.00 | 0.00 | 0.00 | 31 | 1017.9 |
| 20260830114544 | 90 | 68 | 5.0 | 10.0 | 0.00 | 0.00 | 0.00 | 30 | 1017.9 |
| 20260830113044 | 90 | 112 | 5.0 | 11.0 | 0.00 | 0.00 | 0.00 | 31 | 1018.0 |
| 20260830111544 | 89 | 177 | 2.0 | 10.0 | 0.00 | 0.00 | 0.00 | 23 | 1018.1 |
| 20260830110040 | 88 | 175 | 3.0 | 9.0 | 0.00 | 0.00 | 0.00 | 26 | 1018.3 |
| 20260830104543 | 87 | 148 | 2.0 | 8.0 | 0.00 | 0.00 | 0.00 | 30 | 1018.3 |
| 20260830103040 | 86 | 74 | 4.0 | 9.0 | 0.00 | 0.00 | 0.00 | 34 | 1018.4 |
| 20260830101537 | 85 | 82 | 3.0 | 6.0 | 0.00 | 0.00 | 0.00 | 35 | 1018.4 |
| 20260830100042 | 84 | 86 | 1.0 | 4.0 | 0.00 | 0.00 | 0.00 | 37 | 1018.5 |
| 20260830094545 | 83 | 102 | 2.0 | 7.0 | 0.00 | 0.00 | 0.00 | 41 | 1018.6 |
| 20260830093041 | 83 | 91 | 3.0 | 7.0 | 0.00 | 0.00 | 0.00 | 42 | 1018.7 |
| 20260830091540 | 81 | 135 | 2.0 | 7.0 | 0.00 | 0.00 | 0.00 | 46 | 1018.6 |
| 20260830090046 | 79 | 84 | 1.0 | 3.0 | 0.00 | 0.00 | 0.00 | 49 | 1018.6 |
| 20260830084544 | 78 | 0 | 1.0 | 3.0 | 0.00 | 0.00 | 0.00 | 49 | 1018.6 |
| 20260830083054 | 78 | 317 | 0.0 | 1.0 | 0.00 | 0.00 | 0.00 | 48 | 1018.5 |
| 20260830081542 | 76 | 0 | 0.0 | 1.0 | 0.00 | 0.00 | 0.00 | 51 | 1018.3 |
| 20260830080042 | 76 | 0 | 0.0 | 2.0 | 0.00 | 0.00 | 0.00 | 53 | 1018.2 |
| 20260830074542 | 74 | 292 | 0.0 | 2.0 | 0.00 | 0.00 | 0.00 | 54 | 1018.3 |
| 20260830073049 | 72 | 0 | 0.0 | 0.0 | 0.00 | 0.00 | 0.00 | 57 | 1018.3 |
| 20260830071544 | 70 | 0 | 0.0 | 0.0 | 0.00 | 0.00 | 0.00 | 59 | 1018.2 |
| 20260830070103 | 68 | 0 | 0.0 | 0.0 | 0.00 | 0.00 | 0.00 | 60 | 1018.2 |
| 20260830064542 | 67 | 0 | 0.0 | 0.0 | 0.00 | 0.00 | 0.00 | 61 | 1018.1 |
| 20260830063042 | 66 | 0 | 0.0 | 0.0 | 0.00 | 0.00 | 0.00 | 61 | 1018.1 |
| 20260830061545 | 65 | 0 | 0.0 | 0.0 | 0.00 | 0.00 | 0.00 | 61 | 1018.0 |
| 20260830060052 | 64 | 0 | 0.0 | 0.0 | 0.00 | 0.00 | 0.00 | 60 | 1017.9 |
| 20260830054543 | 64 | 0 | 0.0 | 0.0 | 0.00 | 0.00 | 0.00 | 59 | 1017.9 |
| 20260830053043 | 65 | 0 | 0.0 | 0.0 | 0.00 | 0.00 | 0.00 | 60 | 1017.9 |
| 20260830051542 | 66 | 0 | 0.0 | 0.0 | 0.00 | 0.00 | 0.00 | 60 | 1017.9 |
| 20260830050046 | 67 | 0 | 0.0 | 0.0 | 0.00 | 0.00 | 0.00 | 61 | 1017.8 |
| 20260830044549 | 67 | 0 | 0.0 | 0.0 | 0.00 | 0.00 | 0.00 | 61 | 1017.8 |
| 20260830043039 | 67 | 0 | 0.0 | 0.0 | 0.00 | 0.00 | 0.00 | 62 | 1017.5 |
| 20260830041554 | 67 | 0 | 0.0 | 0.0 | 0.00 | 0.00 | 0.00 | 62 | 1017.7 |
| 20260830040051 | 67 | 0 | 0.0 | 0.0 | 0.00 | 0.00 | 0.00 | 62 | 1017.7 |